Location: Arpaise
(41.0333°N, 14.7333°E)
Time: 16:50:47
(UTC+00:00)

Resurs 1-4 Rocket - Pass Details

Date: 05 July 2020
Orbit: 800 x 814 km, 98.6° (Epoch: 11 August)

Event Time Altitude Azimuth Distance (km) Brightness Sun altitude
Rises 23:40:36 0° 26° (NNE) 3,346 6.5 -25.8°
Reaches altitude 10° 23:43:21 10° 39° (NE) 2,408 5.3 -25.7°
Maximum altitude 23:47:44 26° 95° (E) 1,562 3.6 -25.6°
Enters shadow 23:48:44 24° 112° (ESE) 1,614 3.5 -25.5°
